Regional Weather Roundup
Issued by NWS

Home | Current Version | Previous Version | Graphics & Text | Print | Product List | Glossary On
Versions: 1 2 3 4 5 6 7 8 9 10 11 12 13 14 15 16 17 18 19 20 21 22 23 24 25 26 27 28 29 30 31 32 33 34 35 36 37 38 39 40 41 42 43 44 45 46 47 48 49 50
412
ASUS45 KCYS 261910
RWRWY

WYOMING REGIONAL WEATHER ROUNDUP
NATIONAL WEATHER SERVICE CHEYENNE WY
100 PM MDT FRI MAY 26 2017

NOTE:  "FAIR" INDICATES FEW OR NO CLOUDS BELOW 12,000 FEET
WITH NO SIGNIFICANT WEATHER AND/OR OBSTRUCTIONS TO VISIBILITY.

WYZ001-262000-
YELLOWSTONE NATIONAL PARK

CITY           SKY/WX    TMP DP  RH WIND       PRES   REMARKS
LK YELLOWSTONE   N/A     34  32  92 CALM      29.97R
W YELLOWSTONE  NOT AVBL

$$
WYZ002>013-054>058-071-098>099-262000-
NORTHERN WYOMING

CITY           SKY/WX    TMP DP  RH WIND       PRES   REMARKS
JACKSON        LGT RAIN  37  37 100 N7        29.92R WCI  32
CODY           LGT RAIN  48  31  51 NW6       29.95S
GREYBULL       FAIR      62  26  25 N13       29.86F
WORLAND        CLOUDY    56  34  43 CALM      29.89S
SHERIDAN       CLOUDY    56  38  50 NE7       29.93S
BUFFALO        CLOUDY    53  34  48 N7        29.95S
GILLETTE       CLOUDY    57  34  41 CALM      29.91F
HULETT         CLOUDY    57  34  41 NW3       29.92F
NEWCASTLE      FAIR      57  30  35 NW7       29.94S

$$
WYZ014>020-022>026-101>103-262000-
CENTRAL WYOMING

CITY           SKY/WX    TMP DP  RH WIND       PRES   REMARKS
BIG PINEY      PTSUNNY   46  41  82 S9        29.91S
PINEDALE       CLOUDY    46  41  81 SW15G21   29.92R
DUBOIS         LGT RAIN  36  34  93 SE9       29.92R WCI  29
LANDER         LGT RAIN  42  37  82 SE7       29.91F
RIVERTON       LGT RAIN  43  42  97 SW9       29.92S
CASPER         LGT RAIN  47  42  83 E10       29.93R
DOUGLAS        CLOUDY    49  39  68 SE10      29.95F

$$
WYZ021-027>030-104>119-262000-
SOUTHERN WYOMING

CITY           SKY/WX    TMP DP  RH WIND       PRES   REMARKS
EVANSTON       CLOUDY    50  35  56 SW20G28   29.91R
KEMMERER         N/A     46  36  66 S13       29.90F
FORT BRIDGER   CLOUDY    51  33  51 W24G33    29.94R
ROCK SPRINGS   CLOUDY    56  37  49 NW16      29.88R
DIXON            N/A     69  33  26 SW23G29   29.84F
RAWLINS        PTSUNNY   57  39  51 NE9       29.86F
SARATOGA       CLOUDY    54  36  50 SW9G25    29.88F
LARAMIE        LGT RAIN  53  41  63 SE21      29.89F
CHEYENNE       FAIR      55  41  59 S18G24    29.93F
TORRINGTON     FAIR      61  35  37 S8G16     29.92F
PINE BLUFFS    FAIR      61  41  48 S9        29.92F

$$




USA.gov is the U.S. government's official web portal to all federal, state and local government web resources and services.